Ashland, WI

1:28 AM CDT on June 25, 2018 (GMT -0500)
Kennedy Memorial

Weather History for KASX - September, 2017

Change the Weather History Date:

Wednesday, September 13, 2017

  Actual Average Record
Temperature  
Mean Temperature 70 °F 58 °F  
Max Temperature 86 °F 69 °F 91 °F (1939)
Min Temperature 54 °F 46 °F 24 °F (1963)
Degree Days  
Heating Degree Days 0 8  
Month to date heating degree days 82 80  
Cooling Degree Days 5 1  
Month to date cooling degree days 11 13  
Growing Degree Days 19 (Base 50)    
Moisture  
Dew Point 61 °F    
Average Humidity 76    
Maximum Humidity 100    
Minimum Humidity 51    
Precipitation  
Precipitation 0.00 in 0.12 in 1.78 in (1994)
Month to date precipitation 0.43 1.43  
Sea Level Pressure  
Sea Level Pressure 29.74 in    
Wind  
Wind Speed 6 mph (SSW)    
Max Wind Speed 15 mph    
Max Gust Speed 20 mph    
Visibility 9 miles    
Events      
T = Trace of Precipitation, MM = Missing Value Source: NWS Daily Summary

Daily Weather History Graph

Daily Weather History Graph

Search for Another Location

Airport or City:

Astronomy

Sep. 13, 2017 Rise Set
Actual Time 6:39 AM CDT 7:18 PM CDT
Civil Twilight 6:08 AM CDT 7:49 PM CDT
Nautical Twilight 5:32 AM CDT 8:25 PM CDT
Astronomical Twilight 4:54 AM CDT 9:02 PM CDT
Moon No Moon Rise 2:50 PM CDT (9/13)
Length of Visible Light 13h 40m
Length of Day
12h 39m
Last Quarter, 45% of the Moon is Illuminated
Sep 13
Last Quarter
Sep 20
New
Sep 27
First Quarter
Oct 5
Full
Oct 12
Last Quarter

Hourly Weather History & Observations

Time (CDT) Temp. Heat Index Dew Point Humidity Pressure Visibility Wind Dir Wind Speed Gust Speed Precip Events Conditions
12:53 AM 57.9 °F - 55.9 °F 93% 29.81 in 10.0 mi SW 5.8 mph - N/A   Clear
1:53 AM 57.9 °F - 55.0 °F 90% 29.81 in 10.0 mi SSW 4.6 mph - N/A   Clear
2:53 AM 55.9 °F - 54.0 °F 93% 29.79 in 10.0 mi SSW 5.8 mph - N/A   Clear
3:53 AM 55.9 °F - 55.0 °F 97% 29.78 in 10.0 mi South 3.5 mph - N/A   Clear
4:53 AM 57.9 °F - 57.0 °F 97% 29.77 in 10.0 mi Calm Calm - N/A   Clear
5:32 AM 55.9 °F - 55.9 °F 100% 29.78 in 1.8 mi Calm Calm - N/A   Clear
5:42 AM 54.0 °F - 54.0 °F 100% 29.77 in 3.0 mi SSW 3.5 mph - N/A   Clear
5:53 AM 55.0 °F - 54.0 °F 96% 29.77 in 5.0 mi South 3.5 mph - N/A   Clear
6:34 AM 57.0 °F - 55.9 °F 96% 29.77 in 1.8 mi Calm Calm - N/A   Clear
6:53 AM 57.9 °F - 55.9 °F 93% 29.78 in 5.0 mi Calm Calm - N/A   Clear
7:53 AM 62.1 °F - 60.1 °F 93% 29.77 in 10.0 mi South 4.6 mph - N/A   Clear
8:53 AM 70.0 °F - 61.0 °F 73% 29.76 in 10.0 mi SW 6.9 mph - N/A   Clear
9:53 AM 75.0 °F - 63.0 °F 66% 29.75 in 10.0 mi SSW 10.4 mph - N/A   Clear
10:53 AM 79.0 °F - 64.0 °F 60% 29.74 in 10.0 mi SW 10.4 mph - N/A   Clear
11:53 AM 82.0 °F 83.8 °F 64.9 °F 56% 29.73 in 10.0 mi SW 9.2 mph - N/A   Clear
12:53 PM 82.9 °F 85.0 °F 66.0 °F 56% 29.71 in 10.0 mi South 9.2 mph - N/A   Clear
1:53 PM 84.9 °F 86.6 °F 64.9 °F 51% 29.69 in 10.0 mi SSW 10.4 mph 17.3 mph N/A   Clear
2:53 PM 84.9 °F 86.1 °F 64.0 °F 49% 29.68 in 10.0 mi SW 12.7 mph - N/A   Clear
3:53 PM 84.9 °F 87.1 °F 66.0 °F 53% 29.68 in 10.0 mi SW 9.2 mph - N/A   Clear
4:53 PM 82.9 °F 85.0 °F 66.0 °F 56% 29.68 in 10.0 mi SSW 6.9 mph - N/A   Clear
5:53 PM 82.0 °F 84.1 °F 66.0 °F 58% 29.68 in 10.0 mi SSW 6.9 mph - N/A   Clear
6:53 PM 75.0 °F - 66.9 °F 76% 29.68 in 10.0 mi Calm Calm - N/A   Clear
7:53 PM 69.1 °F - 66.0 °F 90% 29.69 in 10.0 mi South 4.6 mph - N/A   Clear
8:53 PM 64.9 °F - 63.0 °F 93% 29.70 in 7.0 mi SSW 4.6 mph - N/A   Clear
9:53 PM 64.9 °F - 63.0 °F 93% 29.71 in 10.0 mi SSW 5.8 mph - N/A   Clear
10:53 PM 64.0 °F - 62.1 °F 93% 29.70 in 10.0 mi South 3.5 mph - N/A   Clear
11:53 PM 63.0 °F - 61.0 °F 93% 29.71 in 10.0 mi Calm Calm - N/A   Clear